Theta_e
309 311 312 311 310 309 308 307 307 307 306 304 302 301 302 306 308 307 307 307 308 309 310 310 310 311 311 311 312 314 314 313 313 313 312 314 314 315 323 327 326 328 331
309 310 310 310 310 310 310 309 309 308 307 306 303 301 301 305 307 308 308 308 308 308 309 310 310 310 311 311 312 312 313 315 314 312 313 313 317 321 321 324 325 326 329
309 309 310 310 311 311 311 311 310 309 308 307 304 302 301 303 305 307 308 308 308 308 309 310 309 310 311 311 312 313 315 314 315 314 313 313 315 318 321 321 324 326 328
308 309 309 310 310 310 310 310 310 309 309 309 307 304 302 301 302 306 308 308 307 307 307 308 309 310 310 310 310 312 313 315 316 317 315 315 316 319 321 321 321 322 323
310 310 309 310 310 310 310 310 310 310 310 310 308 306 304 302 301 303 306 307 308 308 307 308 308 308 309 310 310 311 311 313 316 317 317 318 319 318 314 319 321 321 322
308 307 307 307 307 308 309 310 310 311 310 310 310 309 307 305 302 301 303 305 307 308 307 307 307 307 308 308 308 308 309 311 313 314 315 316 318 319 317 316 319 319 320
302 302 301 303 304 305 305 306 307 307 307 308 308 309 309 307 304 302 301 303 305 307 308 307 306 306 306 306 307 307 307 308 310 311 313 313 313 315 319 317 316 318 319
302 302 302 303 304 305 306 306 306 306 306 306 306 307 307 307 306 304 302 301 303 305 307 307 306 305 305 304 304 305 306 306 307 308 310 311 312 312 313 315 317 316 315
303 302 303 304 305 306 306 306 306 306 306 305 306 306 306 306 306 305 303 301 301 303 304 306 306 305 304 303 302 302 303 303 304 305 306 307 308 309 311 312 313 313 316
303 301 301 303 304 305 305 305 305 305 305 304 305 305 305 305 305 305 304 302 301 300 302 303 304 304 303 302 301 301 301 300 301 302 302 303 304 304 304 306 308 310 311
302 299 300 304 304 305 305 304 304 304 304 304 304 304 304 304 304 304 304 303 302 300 300 300 302 302 301 300 300 299 299 299 299 299 299 300 300 300 300 300 301 302 305
302 300 301 303 304 304 304 303 303 302 303 303 303 303 303 303 303 302 302 302 302 301 300 299 300 301 300 299 298 297 297 296 297 297 297 297 297 297 297 298 298 299 299
302 300 301 301 302 303 303 302 302 302 302 302 302 302 302 302 302 302 301 301 301 300 300 298 298 299 299 297 296 295 295 295 295 295 295 295 295 295 295 296 296 296 296
301 301 300 301 302 302 302 301 301 301 301 301 301 301 301 301 301 301 301 300 300 300 299 298 298 298 298 297 295 294 294 294 294 294 293 293 294 294 294 295 295 295 294
302 301 300 300 301 301 301 301 300 301 301 301 301 301 301 300 300 300 300 300 300 300 300 298 297 296 297 296 294 293 293 293 293 293 293 293 293 293 293 294 294 294 293
302 301 300 301 300 300 300 299 300 300 300 300 299 299 299 298 298 298 299 299 299 299 299 299 298 296 295 295 294 293 293 293 293 293 293 293 292 292 292 293 293 293 293
302 300 299 300 300 300 299 299 299 299 299 299 298 298 298 298 298 298 298 298 298 298 298 298 297 296 295 294 294 293 293 293 293 293 293 292 292 292 291 291 292 292 293
301 300 300 300 300 299 298 298 298 298 298 298 298 298 298 298 298 298 297 297 297 297 297 297 297 296 296 294 294 293 293 293 293 293 293 293 292 292 291 290 291 291 291
301 300 300 299 298 296 296 296 295 296 297 297 297 298 298 298 298 298 297 297 296 296 296 296 296 295 295 294 293 293 293 293 293 293 293 292 292 292 291 291 290 290 290
300 300 299 297 295 294 294 294 293 294 294 295 295 295 296 296 296 297 297 297 297 296 296 295 295 294 294 294 293 293 293 293 293 293 293 292 292 292 292 292 291 290 290
300 299 297 295 294 293 292 292 292 292 292 293 292 292 292 294 294 295 296 297 297 297 296 296 295 294 294 293 293 292 293 294 293 293 292 292 292 293 292 292 292 290 290
299 297 296 294 294 294 292 292 291 291 292 291 291 291 291 292 293 293 293 294 295 296 296 296 295 295 295 294 293 292 293 294 293 292 292 292 292 292 293 292 292 291 290
297 296 295 294 296 294 292 291 291 291 291 291 291 291 291 291 292 293 293 293 293 293 293 293 292 293 295 294 293 292 293 293 295 293 293 292 291 291 292 292 292 291 291
294 294 295 295 295 295 291 291 291 290 291 291 290 290 290 291 290 291 292 292 292 292 292 292 291 292 292 293 294 292 291 291 293 293 294 293 292 291 291 292 292 291 290
294 295 295 295 295 292 292 291 291 290 290 290 290 289 290 290 290 290 291 291 292 292 293 293 293 293 292 293 293 292 291 291 291 292 292 292 291 290 291 291 290 290 289
297 297 297 296 294 293 292 291 291 290 290 289 289 289 289 290 290 290 290 290 290 291 292 292 293 294 294 294 294 294 293 291 291 291 291 291 290 290 289 289 288 288 287
Wind_Speed
5 10 9 7 5 5 8 9 10 9 11 13 12 11 11 11 12 9 12 12 11 11 12 16 18 19 20 18 19 20 23 24 21 19 17 13 16 13 8 12 11 13 5
4 6 6 5 6 8 9 10 11 11 11 12 11 10 13 10 12 11 11 10 11 11 11 14 16 17 19 18 20 20 18 19 19 7 7 4 3 2 4 4 4 3 5
4 2 4 7 9 12 12 13 14 14 12 13 13 12 13 9 9 12 13 12 12 11 11 11 13 14 15 16 17 19 19 15 20 14 4 3 2 2 7 5 5 6 12
1 1 4 7 9 11 11 12 12 13 14 13 13 14 14 15 15 16 15 14 12 12 12 10 11 11 13 15 16 17 17 18 15 16 4 10 8 3 2 5 7 7 10
2 3 5 8 10 12 14 14 14 14 14 13 14 15 17 17 18 17 16 14 13 13 13 11 11 12 11 11 13 14 16 15 14 14 8 4 1 4 1 2 2 6 4
6 7 10 11 12 13 13 14 15 17 16 15 15 16 18 20 20 20 18 16 15 14 13 13 12 12 12 11 11 11 11 12 12 12 12 9 3 1 1 1 1 0 3
5 5 8 13 13 14 14 14 13 16 15 15 17 18 20 20 21 22 20 19 18 17 15 15 14 14 14 12 11 10 9 10 9 9 8 8 8 5 2 1 1 1 2
2 4 7 10 12 13 15 17 18 20 19 18 18 18 20 21 22 23 22 21 20 19 18 18 16 15 14 14 13 12 10 8 7 7 6 5 5 6 6 4 2 1 1
2 4 6 10 12 15 19 20 24 26 23 21 23 24 24 23 23 22 21 22 22 22 20 20 19 18 17 15 14 14 13 12 10 9 8 7 6 4 3 3 3 2 3
4 4 6 11 17 19 21 25 24 23 25 24 24 25 24 24 24 22 23 22 22 22 23 22 21 21 19 17 16 16 15 15 14 12 11 10 9 8 6 5 6 7 5
4 4 7 14 21 22 23 24 26 27 27 27 27 25 25 24 24 24 25 24 22 22 23 24 23 22 21 19 17 17 16 16 15 13 12 12 10 10 8 7 6 6 7
3 3 8 20 24 23 23 26 28 28 27 27 26 25 23 23 24 25 26 25 26 24 24 23 24 24 22 21 19 18 17 16 16 14 13 12 10 10 9 8 6 5 4
5 5 11 15 21 23 24 26 28 28 28 29 28 26 26 27 28 25 23 23 24 25 26 26 26 26 24 22 20 19 18 16 16 14 13 13 12 11 10 8 7 5 4
3 4 7 11 19 21 24 27 28 27 29 29 27 26 27 27 26 24 23 24 25 26 25 26 28 28 26 23 22 20 20 19 18 16 16 14 14 13 11 10 9 7 6
5 6 6 9 17 23 26 28 28 28 28 28 28 28 27 27 27 26 25 26 25 25 25 25 26 28 27 26 24 23 22 21 20 18 17 15 14 13 12 11 11 9 8
5 6 7 11 15 21 25 24 25 26 26 25 25 25 27 28 29 27 26 26 26 25 24 25 25 26 28 29 26 25 24 22 22 21 20 17 15 14 13 13 12 13 13
6 7 7 13 17 21 23 25 26 25 25 23 23 24 26 28 28 28 27 26 27 26 25 25 24 26 28 28 27 24 25 24 24 24 21 20 19 17 17 14 14 14 14
5 6 12 14 16 19 20 22 22 22 22 23 24 26 28 29 30 30 29 29 29 28 25 25 23 23 25 25 25 24 25 26 26 24 23 23 22 20 18 17 16 15 15
5 11 9 9 13 16 19 20 23 23 22 25 27 28 27 28 29 30 31 30 29 28 27 25 25 24 25 22 21 20 24 26 28 26 24 24 24 21 19 18 18 17 17
9 7 8 9 11 16 17 18 21 22 22 25 27 27 26 27 29 28 29 30 30 29 27 26 23 22 24 22 20 17 23 27 28 27 27 25 25 23 22 22 21 19 18
8 6 8 9 11 13 16 18 20 21 23 25 27 28 27 27 27 28 27 28 30 30 30 29 27 24 21 21 20 19 21 27 25 27 25 27 26 23 22 22 24 22 17
10 7 8 12 13 13 15 19 22 22 23 24 27 28 28 27 27 27 30 29 28 29 31 31 32 28 24 19 17 18 20 24 26 24 24 24 23 26 24 22 23 18 15
9 8 8 12 18 17 12 14 21 22 24 25 28 28 28 28 27 27 29 29 28 26 26 24 24 29 28 24 20 17 18 20 26 28 26 21 21 21 26 24 21 18 20
9 9 12 17 21 23 19 18 21 21 22 24 28 28 26 27 28 27 26 24 26 22 20 20 20 24 27 28 24 22 20 18 22 22 24 22 20 22 26 24 22 22 23
13 14 16 18 23 23 24 26 23 22 24 25 27 26 25 27 28 27 24 24 26 23 24 25 25 24 24 26 24 21 22 21 25 22 20 19 20 21 23 23 27 24 22
19 18 21 22 27 26 30 28 25 25 25 25 21 23 23 26 26 26 30 28 22 25 28 31 29 30 28 27 25 25 24 24 20 17 17 17 22 22 22 22 21 24 22
Wind_Direction
141 166 176 191 228 262 276 287 289 304 306 317 326 331 333 341 355 354 348 348 349 342 344 354 2 5 1 343 332 328 334 326 325 315 315 295 297 290 293 258 255 279 212
167 187 199 226 263 277 282 287 295 298 294 301 307 312 318 321 335 345 349 347 347 339 342 351 358 3 1 358 346 342 333 324 329 296 304 327 336 331 358 202 180 197 220
188 228 248 266 278 283 292 298 294 289 289 296 298 301 312 313 323 335 342 345 339 334 332 340 351 0 359 358 354 355 339 328 333 323 240 330 314 315 35 52 113 130 147
138 253 265 285 288 297 301 299 296 289 295 298 296 298 303 310 317 321 321 327 328 325 320 323 342 345 349 351 354 356 356 351 332 348 308 244 263 294 326 10 60 92 105
70 351 319 307 311 309 305 301 299 297 300 302 299 295 297 301 305 306 308 314 316 324 334 322 331 337 337 338 347 348 357 3 358 356 332 301 251 236 99 310 352 55 88
25 357 342 339 334 334 326 315 309 306 306 303 302 299 296 300 298 302 303 308 308 309 314 314 316 318 322 325 329 339 347 356 360 16 18 24 351 304 163 95 23 29 69
31 357 355 359 360 358 355 352 340 332 328 315 312 304 296 295 291 294 295 298 300 300 301 306 309 312 314 315 316 319 329 341 347 354 9 15 18 3 341 145 126 174 141
28 355 355 1 5 8 8 7 358 344 336 328 322 317 309 299 292 293 293 291 290 292 294 294 295 300 301 304 302 301 303 311 320 328 334 347 360 5 2 321 168 162 210
345 342 351 11 5 3 4 1 355 349 341 332 325 319 311 306 305 303 295 291 288 287 287 287 288 291 292 292 295 294 295 299 300 302 304 307 305 295 277 264 275 214 198
336 325 347 359 4 4 0 355 357 354 350 343 340 334 328 312 303 304 299 295 294 289 286 285 282 284 284 284 286 286 291 291 294 293 292 286 280 278 278 265 235 223 217
336 331 358 11 2 358 0 358 353 350 348 344 340 338 334 331 317 302 301 297 296 293 286 284 282 280 282 282 282 281 287 285 288 286 285 284 285 283 277 271 257 239 219
335 4 8 3 359 354 354 353 352 349 347 344 339 337 335 335 331 317 307 305 295 292 287 286 281 278 280 279 280 277 281 281 281 283 279 280 280 280 285 291 280 254 237
358 6 358 348 348 348 349 350 348 348 349 348 345 342 342 338 337 329 319 316 312 302 293 284 279 275 275 275 276 275 275 275 273 273 270 272 268 269 267 265 265 259 250
354 337 333 332 341 342 344 346 346 347 346 344 343 342 342 341 340 339 330 321 317 309 303 292 280 274 272 273 273 269 268 269 265 262 259 259 255 258 255 249 247 246 249
352 327 310 313 340 340 343 345 345 344 344 343 345 345 344 343 340 338 335 331 324 315 307 299 288 278 267 266 273 269 266 266 262 258 255 255 254 251 246 240 237 229 223
309 306 319 331 334 337 337 338 340 340 342 344 346 347 346 345 344 343 339 335 330 325 317 305 294 282 270 269 275 271 266 264 261 257 252 250 249 245 240 236 232 225 214
311 306 315 330 335 337 338 339 340 343 346 348 350 352 351 348 348 345 344 342 338 333 327 320 308 294 283 276 275 272 265 263 259 255 253 249 245 241 238 231 228 225 221
307 320 312 321 336 339 340 339 342 343 345 347 349 351 350 348 349 347 347 345 342 337 330 325 318 306 297 293 286 276 264 259 260 258 256 252 250 244 241 237 229 228 221
278 292 307 330 337 342 343 340 341 344 344 345 343 343 344 341 343 344 344 344 339 338 334 328 323 312 305 303 294 282 260 253 256 258 257 254 252 248 242 236 238 237 235
295 293 314 330 343 345 344 341 340 340 341 340 337 337 337 337 336 338 339 341 340 333 333 329 326 321 310 306 298 286 255 252 251 255 255 250 247 244 238 230 235 234 236
308 288 304 323 342 346 342 338 337 339 338 337 338 338 338 336 336 334 334 335 336 335 333 329 328 324 321 311 298 283 256 248 244 246 250 256 245 235 233 229 234 237 245
297 272 295 312 325 332 334 331 330 334 335 338 338 338 339 338 336 335 333 333 333 331 330 331 326 328 328 321 309 292 271 255 241 239 250 256 257 239 227 228 229 223 221
271 285 287 305 313 321 321 315 326 331 329 329 332 332 334 337 337 331 330 327 327 324 319 317 313 315 324 320 312 299 274 264 249 250 256 254 257 245 226 221 218 217 219
271 285 294 302 307 316 318 318 326 328 322 317 323 326 325 326 328 327 324 316 313 309 308 305 301 302 305 311 311 301 287 271 246 250 250 242 244 238 222 216 214 220 217
280 288 292 296 300 310 319 323 323 322 318 313 315 313 313 317 317 316 311 307 310 304 297 295 294 295 296 299 305 297 285 271 246 254 246 224 225 216 203 200 208 215 214
294 295 302 305 308 313 316 319 325 322 320 310 304 302 302 309 310 310 313 315 303 305 303 298 290 288 286 293 296 288 275 256 244 237 233 219 211 208 199 200 203 214 219